Crane Lake, MN

9:13 PM CST on November 17, 2019 (GMT -0600)
Crane Lake

Weather History for KCDD - October, 2019

Change the Weather History Date:

Monday, October 14, 2019

  Actual Average Record
Temperature  
Mean Temperature 36 °F -  
Max Temperature 41 °F 50 °F 64 °F (2005)
Min Temperature 32 °F 33 °F 23 °F (2017)
Degree Days  
Heating Degree Days 28    
Moisture  
Dew Point 34 °F    
Average Humidity 94    
Maximum Humidity 100    
Minimum Humidity 76    
Precipitation  
Precipitation 0.00 in - - ()
Sea Level Pressure  
Sea Level Pressure 29.90 in    
Wind  
Wind Speed 2 mph (WSW)    
Max Wind Speed 8 mph    
Max Gust Speed -    
Visibility 10 miles    
Events Rain , Snow    
Averages and records for this station are not official NWS values.
T = Trace of Precipitation, MM = Missing Value Source: NWS Daily Summary

Daily Weather History Graph

Daily Weather History Graph

Search for Another Location

Airport or City:

Astronomy

Oct. 14, 2019 Rise Set
Actual Time 7:27 AM CDT 6:23 PM CDT
Civil Twilight 6:56 AM CDT 6:54 PM CDT
Nautical Twilight 6:20 AM CDT 7:30 PM CDT
Astronomical Twilight 5:43 AM CDT 8:06 PM CDT
Moon 7:12 PM CDT (10/14) 7:58 AM CDT (10/14)
Length of Visible Light 11h 58m
Length of Day
10h 55m
Full, 99% of the Moon is Illuminated
Oct 14
Full
Oct 21
Last Quarter
Oct 27
New
Nov 4
First Quarter
Nov 12
Full

Hourly Weather History & Observations

Time (CDT) Temp. Windchill Dew Point Humidity Pressure Visibility Wind Dir Wind Speed Gust Speed Precip Events Conditions
12:03 AM 32.0 °F 28.7 °F 30.2 °F 93% 29.83 in 10.0 mi West 3.5 mph - N/A   Overcast
12:22 AM 32.0 °F - 30.2 °F 93% 29.83 in 5.0 mi Calm Calm - N/A Snow Light Snow
12:43 AM 32.0 °F - 32.0 °F 100% 29.83 in 10.0 mi Calm Calm - N/A   Overcast
1:02 AM 32.0 °F 28.7 °F 32.0 °F 100% 29.83 in 10.0 mi WSW 3.5 mph - N/A   Overcast
1:22 AM 32.0 °F 28.7 °F 32.0 °F 100% 29.84 in 10.0 mi WSW 3.5 mph - N/A   Overcast
1:42 AM 32.0 °F 28.7 °F 32.0 °F 100% 29.84 in 10.0 mi West 3.5 mph - N/A   Overcast
2:03 AM 32.0 °F 28.7 °F 32.0 °F 100% 29.84 in 10.0 mi WSW 3.5 mph - N/A   Overcast
2:22 AM 32.0 °F 27.5 °F 32.0 °F 100% 29.84 in 10.0 mi WSW 4.6 mph - N/A Rain Light Rain
2:42 AM 32.0 °F - 32.0 °F 100% 29.84 in 10.0 mi Calm Calm - N/A   Overcast
3:03 AM 32.0 °F 28.7 °F 32.0 °F 100% 29.84 in 10.0 mi West 3.5 mph - N/A   Overcast
3:22 AM 32.0 °F - 32.0 °F 100% 29.84 in 10.0 mi Calm Calm - N/A   Overcast
3:42 AM 32.0 °F 28.7 °F 32.0 °F 100% 29.85 in 10.0 mi WSW 3.5 mph - N/A   Overcast
4:02 AM 32.0 °F 28.7 °F 32.0 °F 100% 29.85 in 10.0 mi WSW 3.5 mph - N/A   Overcast
4:22 AM 32.0 °F 27.5 °F 32.0 °F 100% 29.86 in 10.0 mi WSW 4.6 mph - N/A   Overcast
4:42 AM 32.0 °F - 32.0 °F 100% 29.86 in 10.0 mi Calm Calm - N/A   Overcast
5:02 AM 32.0 °F 28.7 °F 32.0 °F 100% 29.86 in 10.0 mi SW 3.5 mph - N/A   Overcast
5:22 AM 32.0 °F 28.7 °F 32.0 °F 100% 29.87 in 10.0 mi West 3.5 mph - N/A   Overcast
5:42 AM 32.0 °F 28.7 °F 32.0 °F 100% 29.87 in 10.0 mi West 3.5 mph - N/A   Overcast
6:02 AM 32.0 °F - 32.0 °F 100% 29.88 in 10.0 mi Calm Calm - N/A   Overcast
6:22 AM 32.0 °F 27.5 °F 32.0 °F 100% 29.88 in 10.0 mi WSW 4.6 mph - N/A   Overcast
6:42 AM 32.0 °F - 32.0 °F 100% 29.88 in 10.0 mi Calm Calm - N/A   Overcast
7:02 AM 32.0 °F - 32.0 °F 100% 29.89 in 10.0 mi Calm Calm - N/A   Overcast
7:22 AM 32.0 °F - 32.0 °F 100% 29.89 in 10.0 mi Calm Calm - N/A   Overcast
7:42 AM 32.0 °F 27.5 °F 32.0 °F 100% 29.90 in 10.0 mi West 4.6 mph - N/A   Overcast
8:02 AM 32.0 °F 28.7 °F 30.2 °F 93% 29.90 in 10.0 mi WSW 3.5 mph - N/A   Overcast
8:22 AM 32.0 °F 28.7 °F 30.2 °F 93% 29.90 in 10.0 mi SSW 3.5 mph - N/A Snow Light Snow
8:42 AM 32.0 °F - 32.0 °F 100% 29.91 in 7.0 mi Calm Calm - N/A Snow Light Snow
9:02 AM 33.8 °F - 32.0 °F 93% 29.91 in 7.0 mi Calm Calm - N/A Snow Light Snow
9:22 AM 33.8 °F - 32.0 °F 93% 29.90 in 10.0 mi Calm Calm - N/A Snow Light Snow
9:43 AM 33.8 °F - 33.8 °F 100% 29.91 in 10.0 mi Calm Calm - N/A   Overcast
10:02 AM 33.8 °F 27.7 °F 33.8 °F 100% 29.91 in 10.0 mi SW 6.9 mph - N/A   Overcast
10:22 AM 33.8 °F 27.0 °F 33.8 °F 100% 29.91 in 10.0 mi WSW 8.1 mph - N/A   Overcast
10:42 AM 35.6 °F 32.8 °F 33.8 °F 93% 29.91 in 10.0 mi WSW 3.5 mph - N/A   Overcast
11:02 AM 35.6 °F 32.8 °F 33.8 °F 93% 29.92 in 10.0 mi West 3.5 mph - N/A   Overcast
11:22 AM 35.6 °F 32.8 °F 33.8 °F 93% 29.92 in 10.0 mi West 3.5 mph - N/A   Overcast
11:42 AM 35.6 °F - 33.8 °F 93% 29.92 in 10.0 mi Calm Calm - N/A   Overcast
12:02 PM 35.6 °F 32.8 °F 33.8 °F 93% 29.92 in 10.0 mi West 3.5 mph - N/A   Overcast
12:22 PM 35.6 °F - 33.8 °F 93% 29.92 in 10.0 mi Calm Calm - N/A   Overcast
12:42 PM 37.4 °F - 33.8 °F 87% 29.92 in 10.0 mi Calm Calm - N/A   Overcast
1:03 PM 37.4 °F 34.9 °F 35.6 °F 93% 29.92 in 10.0 mi SSW 3.5 mph - N/A   Overcast
1:22 PM 37.4 °F 34.9 °F 35.6 °F 93% 29.92 in 10.0 mi WSW 3.5 mph - N/A   Overcast
1:42 PM 39.2 °F 34.2 °F 35.6 °F 87% 29.91 in 10.0 mi WSW 6.9 mph - N/A   Overcast
2:02 PM 39.2 °F - 35.6 °F 87% 29.91 in 10.0 mi Calm Calm - N/A   Overcast
2:22 PM 39.2 °F 37.0 °F 35.6 °F 87% 29.91 in 10.0 mi SSW 3.5 mph - N/A   Overcast
2:42 PM 41.0 °F 39.0 °F 35.6 °F 81% 29.91 in 10.0 mi WSW 3.5 mph - N/A   Overcast
3:02 PM 41.0 °F - 35.6 °F 81% 29.91 in 10.0 mi Calm Calm - N/A   Overcast
3:22 PM 41.0 °F 39.0 °F 35.6 °F 81% 29.91 in 10.0 mi WSW 3.5 mph - N/A   Overcast
3:42 PM 41.0 °F 38.0 °F 35.6 °F 81% 29.91 in 10.0 mi WSW 4.6 mph - N/A   Overcast
4:02 PM 41.0 °F - 35.6 °F 81% 29.92 in 10.0 mi Calm Calm - N/A   Overcast
4:22 PM 41.0 °F 38.0 °F 35.6 °F 81% 29.92 in 10.0 mi SW 4.6 mph - N/A   Overcast
4:42 PM 41.0 °F 39.0 °F 33.8 °F 76% 29.92 in 10.0 mi WSW 3.5 mph - N/A   Overcast
5:02 PM 39.2 °F - 33.8 °F 81% 29.92 in 10.0 mi Calm Calm - N/A   Overcast
5:22 PM 39.2 °F - 33.8 °F 81% 29.92 in 10.0 mi Calm Calm - N/A   Overcast
5:43 PM 39.2 °F - 33.8 °F 81% 29.92 in 10.0 mi Calm Calm - N/A   Overcast
6:02 PM 39.2 °F - 35.6 °F 87% 29.92 in 10.0 mi Calm Calm - N/A   Overcast
6:23 PM 39.2 °F - 33.8 °F 81% 29.93 in 10.0 mi Calm Calm - N/A   Overcast
6:43 PM 39.2 °F - 33.8 °F 81% 29.93 in 10.0 mi Calm Calm - N/A   Overcast
7:02 PM 37.4 °F - 35.6 °F 93% 29.93 in 10.0 mi Calm Calm - N/A   Overcast
7:22 PM 37.4 °F - 35.6 °F 93% 29.93 in 10.0 mi Calm Calm - N/A   Overcast
7:42 PM 37.4 °F - 35.6 °F 93% 29.93 in 10.0 mi Calm Calm - N/A   Overcast
8:02 PM 37.4 °F - 35.6 °F 93% 29.94 in 10.0 mi Calm Calm - N/A   Overcast
8:22 PM 37.4 °F - 35.6 °F 93% 29.94 in 10.0 mi Calm Calm - N/A   Overcast
8:42 PM 37.4 °F - 35.6 °F 93% 29.94 in 10.0 mi Calm Calm - N/A   Overcast
9:02 PM 35.6 °F - 35.6 °F 100% 29.94 in 10.0 mi Calm Calm - N/A   Overcast
9:22 PM 35.6 °F - 35.6 °F 100% 29.94 in 10.0 mi Calm Calm - N/A   Overcast
9:42 PM 35.6 °F - 35.6 °F 100% 29.95 in 10.0 mi Calm Calm - N/A   Overcast
10:02 PM 35.6 °F - 35.6 °F 100% 29.95 in 10.0 mi Calm Calm - N/A   Overcast
10:22 PM 35.6 °F - 35.6 °F 100% 29.95 in 10.0 mi Calm Calm - N/A   Overcast
10:42 PM 35.6 °F - 35.6 °F 100% 29.95 in 10.0 mi Calm Calm - N/A   Overcast
11:02 PM 35.6 °F - 35.6 °F 100% 29.95 in 10.0 mi Calm Calm - N/A   Overcast
11:22 PM 35.6 °F - 35.6 °F 100% 29.95 in 10.0 mi Calm Calm - N/A   Overcast
11:42 PM 35.6 °F - 35.6 °F 100% 29.96 in 10.0 mi Calm Calm - N/A   Overcast